TimeEST,TemperatureF,Dew PointF,Humidity,Sea Level PressureIn,VisibilityMPH,Wind Direction,Wind SpeedMPH,Gust SpeedMPH,PrecipitationIn,Events,Conditions,WindDirDegrees,DateUTC
12:53 AM,44.1,32.0,63,30.35,10.0,ENE,6.9,-,N/A,,Clear,70,2012-11-17 05:53:00
1:53 AM,44.1,32.0,63,30.36,10.0,ENE,6.9,-,N/A,,Clear,60,2012-11-17 06:53:00
2:53 AM,39.9,32.0,73,30.37,10.0,NE,4.6,-,N/A,,Clear,40,2012-11-17 07:53:00
3:53 AM,42.1,32.0,67,30.36,10.0,ENE,9.2,-,N/A,,Clear,70,2012-11-17 08:53:00
4:53 AM,42.1,30.9,65,30.38,10.0,ENE,8.1,-,N/A,,Clear,70,2012-11-17 09:53:00
5:53 AM,41.0,30.9,67,30.40,10.0,ENE,8.1,-,N/A,,Clear,70,2012-11-17 10:53:00
6:53 AM,41.0,30.0,65,30.41,10.0,ENE,9.2,-,N/A,,Clear,60,2012-11-17 11:53:00
7:53 AM,42.1,28.9,60,30.43,10.0,ENE,10.4,-,N/A,,Clear,70,2012-11-17 12:53:00
8:53 AM,46.0,28.9,51,30.44,10.0,ENE,12.7,19.6,N/A,,Clear,70,2012-11-17 13:53:00
9:53 AM,48.9,27.0,43,30.45,10.0,East,19.6,29.9,N/A,,Clear,80,2012-11-17 14:53:00
10:53 AM,51.1,28.0,41,30.45,10.0,ENE,12.7,24.2,N/A,,Clear,70,2012-11-17 15:53:00
11:53 AM,54.0,27.0,35,30.42,10.0,Variable,6.9,19.6,N/A,,Clear,0,2012-11-17 16:53:00
12:53 PM,55.9,27.0,33,30.39,10.0,East,9.2,-,N/A,,Clear,100,2012-11-17 17:53:00
1:53 PM,57.0,27.0,32,30.36,10.0,East,11.5,16.1,N/A,,Clear,90,2012-11-17 18:53:00
2:53 PM,57.9,26.1,30,30.35,10.0,East,5.8,-,N/A,,Clear,80,2012-11-17 19:53:00
3:53 PM,57.9,25.0,28,30.35,10.0,East,6.9,-,N/A,,Clear,90,2012-11-17 20:53:00
4:53 PM,57.0,23.0,27,30.36,10.0,East,8.1,-,N/A,,Clear,80,2012-11-17 21:53:00
5:53 PM,52.0,21.9,31,30.38,10.0,East,5.8,-,N/A,,Clear,90,2012-11-17 22:53:00
6:53 PM,48.9,24.1,38,30.39,10.0,East,5.8,-,N/A,,Clear,80,2012-11-17 23:53:00
7:53 PM,48.9,24.1,38,30.40,10.0,ENE,5.8,-,N/A,,Clear,70,2012-11-18 00:53:00
8:53 PM,48.0,25.0,41,30.41,10.0,ENE,6.9,-,N/A,,Clear,70,2012-11-18 01:53:00
9:53 PM,46.9,25.0,42,30.42,10.0,ENE,9.2,-,N/A,,Clear,70,2012-11-18 02:53:00
10:53 PM,46.0,25.0,44,30.41,10.0,East,9.2,-,N/A,,Clear,80,2012-11-18 03:53:00
11:53 PM,45.0,24.1,44,30.40,10.0,ENE,9.2,-,N/A,,Clear,70,2012-11-18 04:53:00